This demonstration page uses our WeatherBlox Daily Observations layout. Learn more.

Left ArrowRight Arrow

38.20091, -84.87328

Hourly Observations for October 5, 2021

Temp ( °F °C ) Dew Point ( °F °C ) Humidity (%) Winds ( mph kmh ) Pressure ( in mb ) Visibility ( mi km ) Precip ( " mm )
12:03 am 00:03 Mostly Clear with Mist and Fog 62 16.7 61 16.1 96 96 N N/A 30.03 1017 3 4 N/A
12:19 am 00:19 Mostly Clear with Mist and Fog 62 16.7 61 16.1 96 96 N N/A 30.03 1017 4 6 N/A
12:53 am 00:53 Clear with Mist and Fog 60 15.6 59 15 96 96 N N/A 30.03 1017 3 5 N/A
12:55 am 00:55 Clear with Mist and Fog 61 16.1 60 15.6 97 97 N N/A 30.03 1017 2 3 N/A
1:05 am 01:05 Mostly Clear with Mist and Fog 60 15.6 59 15 96 96 N N/A 30.03 1017 1 2 N/A
1:19 am 01:19 Mostly Cloudy with Mist and Fog 60 15.6 60 15.6 100 100 N N/A 30.03 1017 1 1 N/A
1:53 am 01:53 Mostly Cloudy with Mist and Fog 60 15.6 60 15.6 100 100 N N/A 30.04 1017 1 1 N/A
1:56 am 01:56 Cloudy with Mist and Fog 60 15.6 60 15.6 100 100 N N/A 30.04 1017 1 2 N/A
2:07 am 02:07 Cloudy with Mist and Fog 61 16.1 60 15.6 97 97 N N/A 30.04 1017 1 1 N/A
2:13 am 02:13 Cloudy with Mist and Fog 61 16.1 60 15.6 97 97 NNW 5 7 30.04 1017 1 2 N/A
2:20 am 02:20 Cloudy with Mist and Fog 60 15.6 59 15 96 96 NNW 3 6 30.04 1017 1 1 N/A
2:34 am 02:34 Mostly Cloudy with Fog 60 15.6 60 15.6 100 100 N N/A 30.05 1018 0 0 N/A
2:53 am 02:53 Mostly Cloudy with Fog 60 15.6 59 15 96 96 N N/A 30.04 1017 0 0 N/A
3:53 am 03:53 Mostly Cloudy with Fog 59 15 59 15 100 100 N N/A 30.04 1017 0 0 N/A
4:16 am 04:16 Mostly Cloudy with Fog 59 15 59 15 100 100 N N/A 30.06 1018 N/A N/A
4:26 am 04:26 Mostly Cloudy with Fog 60 15.6 60 15.6 100 100 N N/A 30.05 1018 0 0 N/A
4:33 am 04:33 Mostly Cloudy with Fog 60 15.6 60 15.6 100 100 N N/A 30.05 1018 N/A N/A
4:53 am 04:53 Mostly Cloudy with Fog 59 15 59 15 100 100 N N/A 30.05 1018 0 0 N/A
5:33 am 05:33 Mostly Cloudy with Fog 59 15 59 15 100 100 N N/A 30.06 1018 1 1 N/A
5:53 am 05:53 Mostly Cloudy with Fog 59 15 58 14.4 96 96 N N/A 30.05 1018 0 0 N/A
6:41 am 06:41 Mostly Cloudy with Fog 59 15 59 15 100 100 N N/A 30.07 1018 N/A N/A
6:53 am 06:53 Mostly Cloudy with Fog 59 15 59 15 100 100 N N/A 30.06 1018 N/A N/A
7:06 am 07:06 Mostly Cloudy with Fog 59 15 59 15 100 100 N N/A 30.08 1018 0 0 N/A
7:53 am 07:53 Mostly Cloudy with Fog 59 15 58 14.4 96 96 N N/A 30.08 1019 N/A N/A
8:53 am 08:53 Mostly Cloudy with Fog 62 16.7 61 16.1 96 96 N N/A 30.10 1019 N/A N/A
9:53 am 09:53 Mostly Cloudy with Fog 63 17.2 63 17.2 100 100 N N/A 30.11 1020 N/A N/A
10:09 am 10:09 Mostly Cloudy with Fog 65 18.3 64 17.8 97 97 NE 3 6 30.12 1020 0 0 N/A
10:15 am 10:15 Cloudy with Mist and Fog 64 17.8 64 17.8 100 100 NNE 3 6 30.12 1020 1 2 N/A
10:21 am 10:21 Cloudy with Mist and Fog 65 18.3 64 17.8 97 97 NE 3 6 30.12 1020 2 3 N/A
10:29 am 10:29 Cloudy with Mist and Fog 66 18.9 65 18.3 96 96 N N/A 30.11 1020 4 6 N/A
10:51 am 10:51 Partly Cloudy 66 19 64 18 94 94 NE 3 6 30.12 1020 7 11 N/A
10:53 am 10:53 Partly Cloudy 67 19.4 65 18.3 93 93 NE 3 6 30.12 1020 7 11 N/A
11:53 am 11:53 Sunny 74 23.3 67 19.4 79 79 NE 5 7 30.12 1020 10 16 N/A
12:53 pm 12:53 Partly Cloudy 76 24.4 67 19.4 74 74 E 5 7 30.12 1020 10 16 N/A
1:53 pm 13:53 Mostly Sunny 79 26.1 65 18.3 62 62 NE 8 13 30.11 1020 10 16 N/A
2:53 pm 14:53 Mostly Sunny 79 26.1 64 17.8 60 60 ENE 7 11 30.09 1019 10 16 N/A
3:53 pm 15:53 Mostly Sunny 79 26.1 65 18.3 62 62 ENE 7 11 30.07 1018 10 16 N/A
4:53 pm 16:53 Mostly Sunny 78 25.6 64 17.8 62 62 E 7 11 30.07 1018 10 16 N/A
5:53 pm 17:53 Mostly Sunny 78 25.6 65 18.3 64 64 NNE 3 6 30.07 1018 10 16 N/A
6:53 pm 18:53 Mostly Cloudy 76 24.4 66 18.9 72 72 NNE 5 7 30.08 1019 10 16 N/A
7:53 pm 19:53 Cloudy 75 23.9 66 18.9 74 74 NE 5 7 30.08 1019 10 16 N/A
8:53 pm 20:53 Cloudy 74 23.3 65 18.3 74 74 ENE 7 11 30.10 1019 10 16 N/A
9:53 pm 21:53 Cloudy 72 22.2 67 19.4 84 84 N N/A 30.12 1020 10 16 0.07 1.78
10:04 pm 22:04 Cloudy with Rain 70 21.1 68 20 93 93 N N/A 30.12 1020 2 3 0.12 3.05
10:10 pm 22:10 Cloudy with Light Rain 70 21.1 68 20 93 93 N N/A 30.12 1020 4 6 0.12 3.05
10:53 pm 22:53 Mostly Cloudy 68 20 67 19.4 96 96 N N/A 30.13 1020 7 11 0.12 3.05
11:53 pm 23:53 Cloudy 68 20 67 19.4 96 96 N N/A 30.13 1020 7 11 N/A

Powered by AerisWeather